| time (UTC) | temp F | wind direction | speed MPH | gust MPH | rain 1hr in | rain 24hr in | rain mn in | humidity % | barometer mb |
| 20260505014525 | 60 | 0 | 0.0 | 5.0 | 0.00 | 0.07 | 0.03 | 81 | 1025.6 |
| 20260505014017 | 60 | 360 | 0.0 | 3.0 | 0.00 | 0.07 | 0.03 | 82 | 1025.6 |
| 20260505013509 | 59 | 360 | 1.0 | 3.0 | 0.00 | 0.07 | 0.03 | 84 | 1025.6 |
| 20260505013029 | 59 | 360 | 0.0 | 3.0 | 0.00 | 0.07 | 0.03 | 84 | 1025.6 |
| 20260505012508 | 59 | 286 | 1.0 | 4.0 | 0.00 | 0.07 | 0.03 | 85 | 1025.7 |
| 20260505012012 | 59 | 0 | 0.0 | 4.0 | 0.00 | 0.07 | 0.03 | 86 | 1025.6 |
| 20260505011527 | 58 | 360 | 1.0 | 5.0 | 0.00 | 0.07 | 0.03 | 87 | 1025.5 |
| 20260505011009 | 58 | 0 | 0.0 | 6.0 | 0.00 | 0.07 | 0.03 | 88 | 1025.5 |
| 20260505010512 | 58 | 360 | 2.0 | 6.0 | 0.00 | 0.07 | 0.03 | 88 | 1025.3 |
| 20260505010030 | 58 | 0 | 0.0 | 5.0 | 0.00 | 0.07 | 0.03 | 88 | 1025.3 |
| 20260505005509 | 59 | 279 | 0.0 | 6.0 | 0.00 | 0.07 | 0.03 | 89 | 1025.3 |
| 20260505005008 | 59 | 279 | 0.0 | 6.0 | 0.00 | 0.07 | 0.03 | 89 | 1025.2 |
| 20260505004530 | 59 | 274 | 0.0 | 3.0 | 0.00 | 0.07 | 0.03 | 90 | 1025.2 |
| 20260505004008 | 59 | 0 | 0.0 | 0.0 | 0.00 | 0.07 | 0.03 | 90 | 1025.2 |
| 20260505003511 | 58 | 0 | 0.0 | 0.0 | 0.00 | 0.07 | 0.03 | 90 | 1025.1 |
| 20260505003029 | 58 | 0 | 0.0 | 0.0 | 0.00 | 0.07 | 0.03 | 90 | 1025.0 |
| 20260505002511 | 58 | 0 | 0.0 | 0.0 | 0.00 | 0.08 | 0.03 | 90 | 1025.1 |
| 20260505002011 | 58 | 0 | 0.0 | 0.0 | 0.00 | 0.08 | 0.03 | 90 | 1025.0 |
| 20260505001529 | 58 | 0 | 0.0 | 0.0 | 0.00 | 0.08 | 0.03 | 90 | 1025.0 |
| 20260505001008 | 58 | 0 | 0.0 | 0.0 | 0.00 | 0.08 | 0.03 | 90 | 1024.9 |
| 20260505000507 | 58 | 0 | 0.0 | 0.0 | 0.00 | 0.08 | 0.03 | 90 | 1024.9 |
| 20260505000026 | 58 | 0 | 0.0 | 0.0 | 0.00 | 0.08 | 0.03 | 90 | 1024.9 |
| 20260504235508 | 58 | 0 | 0.0 | 0.0 | 0.00 | 0.08 | 0.03 | 90 | 1024.9 |
| 20260504235009 | 58 | 0 | 0.0 | 0.0 | 0.00 | 0.08 | 0.03 | 90 | 1024.8 |
| 20260504234534 | 58 | 0 | 0.0 | 0.0 | 0.00 | 0.08 | 0.03 | 90 | 1025.0 |
| 20260504234008 | 58 | 0 | 0.0 | 0.0 | 0.00 | 0.08 | 0.03 | 90 | 1024.8 |
| 20260504233508 | 57 | 0 | 0.0 | 0.0 | 0.00 | 0.08 | 0.03 | 90 | 1024.9 |
| 20260504233028 | 57 | 0 | 0.0 | 0.0 | 0.00 | 0.08 | 0.03 | 90 | 1024.9 |
| 20260504232509 | 57 | 0 | 0.0 | 0.0 | 0.00 | 0.08 | 0.03 | 89 | 1025.0 |
| 20260504232008 | 57 | 0 | 0.0 | 0.0 | 0.00 | 0.08 | 0.03 | 90 | 1024.8 |
| 20260504231527 | 57 | 0 | 0.0 | 0.0 | 0.00 | 0.08 | 0.03 | 90 | 1024.8 |
| 20260504231008 | 57 | 0 | 0.0 | 0.0 | 0.00 | 0.08 | 0.03 | 89 | 1024.7 |
| 20260504230507 | 57 | 0 | 0.0 | 0.0 | 0.00 | 0.08 | 0.03 | 89 | 1024.7 |
| 20260504230029 | 56 | 0 | 0.0 | 0.0 | 0.00 | 0.08 | 0.03 | 89 | 1024.6 |
| 20260504225516 | 56 | 0 | 0.0 | 0.0 | 0.00 | 0.08 | 0.03 | 89 | 1024.5 |
| 20260504225008 | 56 | 0 | 0.0 | 0.0 | 0.00 | 0.08 | 0.03 | 89 | 1024.5 |
| 20260504224528 | 56 | 0 | 0.0 | 0.0 | 0.00 | 0.08 | 0.03 | 89 | 1024.5 |
| 20260504224008 | 56 | 0 | 0.0 | 0.0 | 0.00 | 0.08 | 0.03 | 89 | 1024.4 |
| 20260504223508 | 56 | 0 | 0.0 | 0.0 | 0.00 | 0.08 | 0.03 | 89 | 1024.3 |
| 20260504223030 | 56 | 0 | 0.0 | 0.0 | 0.00 | 0.08 | 0.03 | 89 | 1024.4 |
| 20260504222510 | 55 | 0 | 0.0 | 0.0 | 0.00 | 0.18 | 0.03 | 89 | 1024.1 |
| 20260504222010 | 55 | 0 | 0.0 | 0.0 | 0.00 | 0.18 | 0.03 | 89 | 1024.2 |
| 20260504221528 | 55 | 0 | 0.0 | 0.0 | 0.00 | 0.18 | 0.03 | 89 | 1024.1 |
| 20260504221011 | 55 | 0 | 0.0 | 0.0 | 0.00 | 0.18 | 0.03 | 89 | 1024.0 |
| 20260504220508 | 54 | 0 | 0.0 | 0.0 | 0.00 | 0.18 | 0.03 | 89 | 1023.9 |
| 20260504220030 | 54 | 0 | 0.0 | 0.0 | 0.00 | 0.18 | 0.03 | 89 | 1024.0 |
| 20260504215510 | 54 | 0 | 0.0 | 0.0 | 0.00 | 0.18 | 0.03 | 88 | 1023.8 |
| 20260504215008 | 54 | 0 | 0.0 | 0.0 | 0.00 | 0.18 | 0.03 | 88 | 1023.8 |
| 20260504214528 | 54 | 0 | 0.0 | 0.0 | 0.00 | 0.18 | 0.03 | 88 | 1023.8 |
| 20260504214007 | 54 | 0 | 0.0 | 0.0 | 0.00 | 0.18 | 0.03 | 88 | 1023.8 |
| 20260504213511 | 54 | 0 | 0.0 | 0.0 | 0.00 | 0.18 | 0.03 | 88 | 1023.8 |
| 20260504213026 | 54 | 0 | 0.0 | 0.0 | 0.00 | 0.18 | 0.03 | 88 | 1023.8 |
| 20260504212508 | 53 | 0 | 0.0 | 0.0 | 0.00 | 0.22 | 0.03 | 88 | 1023.7 |
| 20260504212009 | 53 | 0 | 0.0 | 0.0 | 0.00 | 0.22 | 0.03 | 88 | 1023.6 |
| 20260504211527 | 53 | 0 | 0.0 | 0.0 | 0.00 | 0.21 | 0.03 | 88 | 1023.6 |
| 20260504211011 | 53 | 0 | 0.0 | 0.0 | 0.00 | 0.21 | 0.03 | 88 | 1023.5 |
| 20260504210509 | 53 | 0 | 0.0 | 0.0 | 0.00 | 0.21 | 0.03 | 88 | 1023.4 |
| 20260504210032 | 53 | 0 | 0.0 | 0.0 | 0.00 | 0.21 | 0.03 | 88 | 1023.3 |
| 20260504205512 | 53 | 0 | 0.0 | 0.0 | 0.00 | 0.21 | 0.03 | 88 | 1023.2 |
| 20260504205011 | 53 | 0 | 0.0 | 0.0 | 0.00 | 0.21 | 0.03 | 88 | 1023.1 |
| 20260504204527 | 53 | 0 | 0.0 | 0.0 | 0.00 | 0.21 | 0.03 | 88 | 1023.2 |
| 20260504204007 | 53 | 0 | 0.0 | 0.0 | 0.00 | 0.21 | 0.03 | 87 | 1023.1 |
| 20260504203513 | 53 | 0 | 0.0 | 0.0 | 0.00 | 0.21 | 0.03 | 87 | 1023.1 |
| 20260504203039 | 53 | 0 | 0.0 | 0.0 | 0.00 | 0.21 | 0.03 | 87 | 1023.0 |
| 20260504202511 | 53 | 0 | 0.0 | 0.0 | 0.00 | 0.21 | 0.03 | 87 | 1023.0 |
| 20260504202008 | 53 | 0 | 0.0 | 0.0 | 0.00 | 0.21 | 0.03 | 87 | 1023.0 |
| 20260504201531 | 53 | 0 | 0.0 | 0.0 | 0.00 | 0.21 | 0.03 | 87 | 1022.9 |
| 20260504201018 | 53 | 0 | 0.0 | 0.0 | 0.00 | 0.21 | 0.03 | 87 | 1023.0 |
| 20260504200510 | 53 | 0 | 0.0 | 0.0 | 0.00 | 0.21 | 0.03 | 87 | 1022.9 |
| 20260504200026 | 53 | 0 | 0.0 | 0.0 | 0.00 | 0.21 | 0.03 | 87 | 1022.9 |
| 20260504195509 | 53 | 0 | 0.0 | 0.0 | 0.00 | 0.21 | 0.03 | 87 | 1022.9 |
| 20260504195013 | 53 | 0 | 0.0 | 0.0 | 0.00 | 0.21 | 0.03 | 87 | 1022.8 |
| 20260504194533 | 53 | 0 | 0.0 | 0.0 | 0.00 | 0.21 | 0.03 | 87 | 1022.8 |
| 20260504194010 | 53 | 0 | 0.0 | 0.0 | 0.00 | 0.21 | 0.03 | 87 | 1022.7 |
| 20260504193514 | 53 | 0 | 0.0 | 0.0 | 0.00 | 0.21 | 0.03 | 87 | 1022.7 |
| 20260504193030 | 53 | 0 | 0.0 | 0.0 | 0.00 | 0.21 | 0.03 | 87 | 1022.7 |
| 20260504192509 | 53 | 0 | 0.0 | 0.0 | 0.00 | 0.29 | 0.03 | 87 | 1022.7 |
| 20260504192010 | 53 | 0 | 0.0 | 0.0 | 0.00 | 0.28 | 0.02 | 87 | 1022.7 |
| 20260504191529 | 53 | 0 | 0.0 | 0.0 | 0.00 | 0.28 | 0.02 | 87 | 1022.5 |
| 20260504191012 | 54 | 0 | 0.0 | 0.0 | 0.00 | 0.28 | 0.02 | 87 | 1022.5 |
| 20260504190508 | 54 | 0 | 0.0 | 0.0 | 0.00 | 0.28 | 0.02 | 87 | 1022.4 |
| 20260504190030 | 54 | 0 | 0.0 | 0.0 | 0.00 | 0.28 | 0.02 | 87 | 1022.4 |
| 20260504185509 | 54 | 0 | 0.0 | 0.0 | 0.00 | 0.28 | 0.02 | 87 | 1022.4 |
| 20260504185009 | 55 | 0 | 0.0 | 0.0 | 0.00 | 0.28 | 0.02 | 87 | 1022.4 |
| 20260504184530 | 55 | 0 | 0.0 | 0.0 | 0.00 | 0.28 | 0.02 | 87 | 1022.4 |
| 20260504184009 | 55 | 0 | 0.0 | 0.0 | 0.00 | 0.28 | 0.02 | 87 | 1022.4 |
| 20260504183512 | 55 | 0 | 0.0 | 0.0 | 0.00 | 0.28 | 0.02 | 87 | 1022.4 |
| 20260504183031 | 55 | 0 | 0.0 | 0.0 | 0.00 | 0.28 | 0.02 | 87 | 1022.3 |
| 20260504182519 | 55 | 0 | 0.0 | 0.0 | 0.00 | 0.28 | 0.02 | 87 | 1022.3 |
| 20260504182017 | 55 | 0 | 0.0 | 0.0 | 0.00 | 0.28 | 0.02 | 87 | 1022.1 |
| 20260504181527 | 55 | 0 | 0.0 | 0.0 | 0.00 | 0.28 | 0.02 | 87 | 1022.1 |
| 20260504181009 | 55 | 0 | 0.0 | 0.0 | 0.00 | 0.28 | 0.02 | 87 | 1022.1 |
| 20260504180511 | 55 | 0 | 0.0 | 0.0 | 0.00 | 0.28 | 0.02 | 87 | 1022.1 |
| 20260504180031 | 55 | 0 | 0.0 | 0.0 | 0.00 | 0.28 | 0.02 | 87 | 1022.1 |
| 20260504175508 | 55 | 0 | 0.0 | 0.0 | 0.00 | 0.28 | 0.02 | 87 | 1022.1 |
| 20260504175009 | 55 | 0 | 0.0 | 0.0 | 0.00 | 0.28 | 0.02 | 87 | 1022.1 |
| 20260504174526 | 55 | 0 | 0.0 | 0.0 | 0.00 | 0.28 | 0.02 | 87 | 1022.1 |
| 20260504174008 | 55 | 0 | 0.0 | 0.0 | 0.00 | 0.28 | 0.02 | 87 | 1022.1 |
| 20260504173510 | 55 | 0 | 0.0 | 0.0 | 0.01 | 0.28 | 0.02 | 87 | 1022.1 |
| 20260504173026 | 55 | 0 | 0.0 | 0.0 | 0.01 | 0.28 | 0.02 | 87 | 1022.0 |
| 20260504172508 | 56 | 0 | 0.0 | 0.0 | 0.01 | 0.29 | 0.02 | 87 | 1022.1 |
| 20260504172010 | 55 | 0 | 0.0 | 0.0 | 0.01 | 0.29 | 0.02 | 87 | 1022.3 |
| 20260504171528 | 55 | 0 | 0.0 | 0.0 | 0.01 | 0.29 | 0.02 | 86 | 1022.3 |
| 20260504171014 | 55 | 0 | 0.0 | 0.0 | 0.01 | 0.29 | 0.02 | 87 | 1022.3 |
| 20260504170508 | 55 | 0 | 0.0 | 0.0 | 0.01 | 0.29 | 0.02 | 87 | 1022.4 |
| 20260504151017 | 54 | 0 | 0.0 | 0.0 | 0.00 | 0.33 | 0.00 | 84 | 1022.1 |
| 20260504150512 | 54 | 0 | 0.0 | 0.0 | 0.00 | 0.33 | 0.00 | 83 | 1022.1 |
| 20260504141008 | 54 | 0 | 0.0 | 0.0 | 0.00 | 0.33 | 0.33 | 82 | 1021.8 |
| 20260504140516 | 54 | 0 | 0.0 | 0.0 | 0.00 | 0.33 | 0.33 | 82 | 1021.7 |
| 20260504130510 | 56 | 0 | 0.0 | 0.0 | 0.00 | 0.33 | 0.33 | 81 | 1021.6 |
| 20260504110511 | 60 | 0 | 0.0 | 3.0 | 0.03 | 0.34 | 0.33 | 74 | 1020.9 |
| 20260504100512 | 61 | 0 | 0.0 | 0.0 | 0.00 | 0.33 | 0.29 | 72 | 1019.7 |
| 20260504081531 | 62 | 284 | 2.0 | 9.0 | 0.00 | 0.33 | 0.29 | 69 | 1018.1 |
| 20260504081010 | 62 | 0 | 2.0 | 8.0 | 0.00 | 0.33 | 0.29 | 68 | 1018.2 |
| 20260504080511 | 63 | 288 | 2.0 | 9.0 | 0.00 | 0.33 | 0.29 | 68 | 1018.1 |
| 20260504050514 | 67 | 296 | 3.0 | 12.0 | 0.00 | 0.33 | 0.29 | 61 | 1016.4 |
| 20260504045509 | 67 | 229 | 3.0 | 12.0 | 0.00 | 0.33 | 0.29 | 61 | 1016.3 |
| 20260504045011 | 67 | 225 | 7.0 | 12.0 | 0.00 | 0.33 | 0.29 | 60 | 1016.2 |
| 20260504044532 | 68 | 277 | 4.0 | 13.0 | 0.00 | 0.33 | 0.29 | 59 | 1016.2 |
| 20260504044008 | 68 | 144 | 4.0 | 13.0 | 0.00 | 0.33 | 0.29 | 59 | 1016.3 |
| 20260504043508 | 68 | 273 | 4.0 | 11.0 | 0.00 | 0.33 | 0.29 | 59 | 1016.2 |
| 20260504043030 | 68 | 268 | 3.0 | 11.0 | 0.00 | 0.33 | 0.29 | 61 | 1016.2 |
| 20260504042509 | 67 | 284 | 4.0 | 12.0 | 0.00 | 0.33 | 0.29 | 62 | 1016.1 |
| 20260504042011 | 67 | 217 | 4.0 | 12.0 | 0.00 | 0.33 | 0.29 | 63 | 1016.3 |
| 20260504041527 | 67 | 252 | 4.0 | 12.0 | 0.00 | 0.33 | 0.29 | 64 | 1016.3 |
| 20260504041010 | 66 | 273 | 3.0 | 12.0 | 0.00 | 0.33 | 0.29 | 64 | 1016.1 |
| 20260504040510 | 66 | 297 | 4.0 | 12.0 | 0.00 | 0.33 | 0.29 | 63 | 1016.3 |
| 20260504040029 | 66 | 220 | 2.0 | 12.0 | 0.00 | 0.33 | 0.29 | 65 | 1016.4 |
| 20260504035512 | 66 | 272 | 2.0 | 11.0 | 0.00 | 0.33 | 0.29 | 64 | 1016.3 |
| 20260504035013 | 66 | 266 | 5.0 | 11.0 | 0.00 | 0.33 | 0.29 | 63 | 1016.3 |
| 20260504034528 | 67 | 274 | 4.0 | 12.0 | 0.00 | 0.33 | 0.29 | 63 | 1016.3 |
| 20260504034017 | 67 | 256 | 4.0 | 12.0 | 0.00 | 0.33 | 0.29 | 63 | 1016.3 |
| 20260504033508 | 66 | 260 | 3.0 | 12.0 | 0.00 | 0.33 | 0.29 | 63 | 1016.4 |
| 20260504033026 | 66 | 297 | 5.0 | 12.0 | 0.00 | 0.33 | 0.29 | 64 | 1016.2 |
| 20260504032512 | 66 | 269 | 5.0 | 14.0 | 0.00 | 0.33 | 0.29 | 66 | 1016.3 |
| 20260504032011 | 66 | 261 | 6.0 | 14.0 | 0.00 | 0.33 | 0.29 | 65 | 1016.3 |
| 20260504031530 | 66 | 290 | 5.0 | 12.0 | 0.00 | 0.33 | 0.29 | 67 | 1016.3 |
| 20260504031012 | 66 | 265 | 4.0 | 12.0 | 0.00 | 0.33 | 0.29 | 68 | 1016.4 |
| 20260504030509 | 65 | 283 | 5.0 | 12.0 | 0.00 | 0.33 | 0.29 | 67 | 1016.4 |
| 20260504030028 | 65 | 273 | 4.0 | 11.0 | 0.00 | 0.33 | 0.29 | 68 | 1016.5 |
| 20260504025510 | 65 | 267 | 3.0 | 12.0 | 0.00 | 0.33 | 0.29 | 68 | 1016.6 |
| 20260504025009 | 65 | 269 | 4.0 | 12.0 | 0.00 | 0.33 | 0.29 | 67 | 1016.6 |
| 20260504024528 | 65 | 301 | 4.0 | 10.0 | 0.00 | 0.33 | 0.29 | 67 | 1016.5 |
| 20260504024009 | 66 | 292 | 4.0 | 13.0 | 0.00 | 0.33 | 0.29 | 67 | 1016.6 |
| 20260504023511 | 66 | 250 | 4.0 | 13.0 | 0.00 | 0.33 | 0.29 | 68 | 1016.6 |
| 20260504023028 | 66 | 204 | 4.0 | 12.0 | 0.00 | 0.33 | 0.29 | 69 | 1016.6 |
| 20260504022513 | 65 | 252 | 4.0 | 12.0 | 0.00 | 0.33 | 0.29 | 70 | 1016.5 |
| 20260504022008 | 65 | 360 | 5.0 | 11.0 | 0.00 | 0.33 | 0.29 | 71 | 1016.5 |
| 20260504021530 | 65 | 360 | 4.0 | 14.0 | 0.00 | 0.33 | 0.29 | 72 | 1016.6 |
| 20260504021009 | 64 | 297 | 6.0 | 14.0 | 0.00 | 0.33 | 0.29 | 72 | 1016.6 |
| 20260504020508 | 64 | 286 | 5.0 | 13.0 | 0.00 | 0.33 | 0.29 | 73 | 1016.5 |
| 20260504020029 | 64 | 360 | 4.0 | 11.0 | 0.00 | 0.33 | 0.29 | 75 | 1016.6 |
| 20260504015509 | 63 | 279 | 2.0 | 11.0 | 0.00 | 0.33 | 0.29 | 77 | 1016.6 |
| 20260504015016 | 63 | 253 | 2.0 | 9.0 | 0.00 | 0.33 | 0.29 | 77 | 1016.6 |